Location: ?
(35.4554°N, 139.3092°E)
Time: 22:21:04
(UTC+00:00)

SL-4 R/B - Pass Details

Date: 21 April 2021
Orbit: 427 x 663 km, 51.6° (Epoch: 10 May)

Event Time Altitude Azimuth Distance (km) Brightness Sun altitude
Exits shadow 17:02:38 26° 356° (N) 1,316 4.2 -31.9°
Maximum altitude 17:04:13 31° 31° (NNE) 1,147 4.1 -31.7°
Drops below altitude 10° 17:08:29 10° 94° (E) 2,057 5.3 -31.1°
Sets 17:11:01 0° 105° (ESE) 2,945 6.1 -30.7°
